SHIYAN 2 (SY-2)

Satellite information

Favourite Embed

Satellite Type and Status

PAYLOADIN ORBIT

Key statistics

Satellite SHIYAN 2 (SY-2) at a glance.

Uptime

7536

Days in orbit

Revolutions

≈ 14.7

Per day

Orbit

SSO

Sun Synchronous Orbit

Inclination

98.1

Latest

Satellite identification and parameters

Extended collection of information and parameters for SHIYAN 2 (SY-2).

Object identification

Identified? True

Debris? False

Object name: SHIYAN 2 (SY-2)

International designator: 2004-046A

Object number (NORAD): 28479

Object ID (CCSDS): 28479

Country: PEOPLES REPUBLIC OF CHINA (PRC)

Current information (Y/N): Y

RCS size: LARGE

Orbital parameters

Period: 98.252 minutes

Inclination: 98.0638 deg

SMA: 7053.205 km

Apoapsis: 680.876 km

Periapsis: 669.264 km

RAAN: 198.8589 deg

Eccentricy: 0.0008232

Argument of periapsis: 273.2306 deg

Mean anomaly: 86.7956 deg

Mean motion: 14.65625399 rev/day

Mean motion (dot): 0.00000685 rev/day2

B* drag term: 0.00013474 1/REarth

Two-line elements (TLE)

Creation date: July 6, 2025, 10:26 p.m.

Reference frame: TEME

Reference center: EARTH

Epoch: July 6, 2025, 3:09 p.m. UTC

TLE line 0: 0 SHIYAN 2 (SY-2)

TLE line 1: 1 28479U 04046A 25187.63130089 .00000685 00000-0 13474-3 0 9998

TLE line 2: 2 28479 98.0638 198.8589 0008232 273.2306 86.7956 14.65625399 99269

Live tracking on map

Real-time ground track for satellite SHIYAN 2 (SY-2).

In-orbit conjunctions

A list of the most updated potential collisions computed for object SHIYAN 2 (SY-2).

Target Orbit TCA Probability of collision Miss distance Type
CZ-6A DEB LEO 2025-05-05 10:04:41 0.0001763315 236.0 (m) DEBRIS
FENGYUN 1C DEB SSO 2025-04-27 02:26:14 0.0001366926 651.0 (m) DEBRIS
COSMOS 2251 DEB LEO 2025-02-22 06:28:16 0.0003022542 158.0 (m) DEBRIS
COSMOS 2251 DEB LEO 2024-11-20 03:38:35 0.0001271387 815.0 (m) DEBRIS

Associated space launch

Remote Sensing Technology..

SHIYAN 2 (SY-2) was lifted into orbit during the mission ‘Long March 2C | Shiyan Weixing 2’, on board a Long March 2 space rocket.

The launch took place on Nov. 18, 2004, 10:45 a.m. from Launch Complex 3 (LC-3/LA-1).

For more information about the launch, click the button.

Launch to space Long March 2C | Shiyan Weixing 2
Long March 2C | Shiyan Weixing 2

Agency: N/A

Status: Launch Successful

Launch date: Nov. 18, 2004, 10:45 a.m. UTC

Rocket: Long March 2

Launch pad: Launch Complex 3 (LC-3/LA-1)

Location: Xichang Satellite Launch Center, People's Republic of China

...

Latest news about this satellite

There are no fresh news available about this satellite. Check back as we update our databases every day.


Newsletter sign-up

Weekly statistics, charts and insights to help you stay on top of the space industry.